Regional Weather Roundup
Issued by NWS

Home | Current Version | Previous Version | Text Only | Print | Product List | Glossary On
Versions: 1 2 3 4 5 6 7 8 9 10 11 12 13 14 15 16 17 18 19 20 21 22 23 24 25 26 27 28 29 30 31 32 33 34 35 36 37 38 39 40 41 42 43 44 45 46 47 48 49 50
000
ASUS43 KDMX 161406
RWRIA

WEATHER ROUNDUP FOR IOWA
NATIONAL WEATHER SERVICE DES MOINES IA
900 AM CDT WED AUG 16 2017

NOTE: "FAIR" INDICATES FEW OR NO CLOUDS BELOW 12,000 FEET WITH NO
SIGNIFICANT WEATHER AND/OR OBSTRUCTIONS TO VISIBILITY.

* - THESE STATIONS ARE NOT NWS STATIONS...THUS NOT UNDER NWS
QUALITY CONTROL.  THEY ALSO DO NOT REPORT WEATHER SUCH
AS PRECIPITATION OR FOG.

IAZ001>003-012>014-020>022-031>034-043>046-161500-
   NORTHWEST IOWA

CITY           SKY/WX    TMP DP  RH WIND       PRES   REMARKS
CARROLL *      CLOUDY    72  72 100 SE12      29.82F
CHEROKEE *     CLOUDY    68  68 100 NE8       29.83F FOG
DENISON *      CLOUDY    72  70  94 E12       29.80F
LE MARS *      LGT RAIN  68  68 100 E7        29.81S
ORANGE CITY *  LGT RAIN  70  70 100 E8        29.82F VSB 1
SHELDON *      LGT RAIN  68  68 100 E5        29.83F
SIOUX CITY     TSTM      68  68 100 E16       29.80S VSB 3/4
SPENCER        LGT RAIN  68  67  96 E9        29.85F FOG
STORM LAKE *   FOG       68  68 100 E8        29.84S VSB<1/4
$$

IAZ055>058-069>071-079>083-090>094-161500-
   SOUTHWEST IOWA

CITY           SKY/WX    TMP DP  RH WIND       PRES   REMARKS
ATLANTIC *     PTSUNNY   73  70  88 SE9G17    29.81R
AUDUBON *      CLOUDY    73  70  88 SE7       29.83S
CLARINDA *     CLOUDY    73  72  94 S8        29.83S
COUNCIL BLFS * CLOUDY    73  73 100 SE15      29.78F
CRESTON *      CLOUDY    72  70  94 SE15G21   29.86R
HARLAN  *      CLOUDY    73  72  94 SE9       29.84R
LAMONI         CLOUDY    73  71  93 S7        29.86S
RED OAK *      CLOUDY    73  70  88 SE9G15    29.80S
SHENANDOAH *   CLOUDY    75  72  88 SE8G15    29.80S
$$

IAZ047>049-059>061-072>074-084-161500-
   CENTRAL IOWA

CITY           SKY/WX    TMP DP  RH WIND       PRES   REMARKS
AMES           CLOUDY    71  71 100 SE8       29.86S
ANKENY *       MOSUNNY   73  70  88 SE8       29.86S
BOONE *          N/A     72  70  94 SE13      29.85S
CHARITON *     CLOUDY    73  72  94 SE10      29.86F
DES MOINES     CLOUDY    73  70  90 SE13      29.85R
GRINNELL*      CLOUDY    70  68  93 E9        29.90F FOG
KNOXVILLE *    CLOUDY    73  70  88 SE9       29.86S
MARSHALLTOWN   CLOUDY    71  69  93 SE13      29.88S
NEWTON *       CLOUDY    72  70  94 SE12      29.88S
PELLA *        CLOUDY    73  69  89 SE7       29.89S
PERRY *          N/A     72  71  95 E7        29.84F
$$

IAZ004>006-015-016-023>025-035-036-161500-
   NORTH CENTRAL IOWA

CITY           SKY/WX    TMP DP  RH WIND       PRES   REMARKS
ALGONA *       CLOUDY    68  68 100 SE6       29.87F FOG
CLARION *      CLOUDY    68  68 100 E12       29.87F FOG
ESTHERVILLE    FOG       65  65 100 SE12      29.87F VSB 3/4
FORT DODGE *   CLOUDY    68  64  88 SE5       29.86F
MASON CITY     CLOUDY    67  66  97 SE10      29.91F FOG
FOREST CITY *  CLOUDY    68  66  94 SE9       29.89F FOG
WEBSTER CITY * PTSUNNY   72  70  94 SE12      29.84F
IOWA FALLS *   CLOUDY    70  68  92 E8        29.89F
$$

IAZ007>011-017>019-026>030-037>042-050>054-066-161500-
   NORTHEAST IOWA

CITY           SKY/WX    TMP DP  RH WIND       PRES   REMARKS
CEDAR RAPIDS   CLOUDY    68  68 100 E10       29.92F FOG
CHARLES CITY * CLOUDY    68  68 100 SE8       29.93S
CLINTON *      SUNNY     71  66  84 E13       29.96F
DECORAH *      MOSUNNY   66  61  82 VRB7G15   29.95S
DUBUQUE        SUNNY     68  64  87 E9        29.97S
MONTICELLO *   SUNNY     70  64  83 SE8G14    29.94F
OELWEIN *        N/A     68  66  94 SE15      29.93F
WATERLOO       CLOUDY    68  65  90 SE13      29.90F FOG
$$

IAZ064-065-067-068-078-161500-
   EAST CENTRAL IOWA

CITY           SKY/WX    TMP DP  RH WIND       PRES   REMARKS
DAVENPORT      MOSUNNY   71  66  84 E12       29.96F
IOWA CITY      CLOUDY    73  68  84 E12       29.93S
MT. PLEASANT * SUNNY     76  72  87 SE9       29.92S
MUSCATINE *    CLOUDY    75  68  78 SE9       29.92F
QUAD CITIES    SUNNY     73  66  78 E9        29.94F
$$

IAZ062-063-075>077-085>089-095>099-161500-
   SOUTHEAST IOWA

CITY           SKY/WX    TMP DP  RH WIND       PRES   REMARKS
BURLINGTON     PTSUNNY   76  72  87 SE6       29.93R
FAIRFIELD *    MOSUNNY   75  70  83 SE13      29.90S
FORT MADISON * MOSUNNY   73  72  94 SE8       29.93S
KEOKUK *       MOSUNNY   75  72  88 SE8       29.92R
OSKALOOSA *      N/A     73  70  89 SE10      29.89S
CENTERVILLE *  CLOUDY    73  72  94 SE6       29.90S
OTTUMWA        MOSUNNY   76  72  87 SE10      29.88F
WASHINGTON *   SUNNY     73  72  94 SE8       29.92S
$$

ABBREVIATIONS USED IN REMARKS
   TC - TEMPERATURES IN CELSIUS
  WCI - WIND CHILL INDEX
   HX - HEAT INDEX
  VSB - VISIBILITY
$$




USA.gov is the U.S. government's official web portal to all federal, state and local government web resources and services.